This is the latest recevied weather packets stored in our database for station/object N0NB. If no packets are shown the sender has not sent any weather packets the latest 10 day(s).
| Time | Temp. | Humidity | Pressure | Rain* | Wind** | Luminosity | Snow |
|---|---|---|---|---|---|---|---|
| 1777951215 | 16.11° C | 38% | 1006.1 hPa | 0 mm | - | 0 W/m² | - |
| 1777950615 | 16.67° C | 38% | 1005.7 hPa | 0 mm | - | 0 W/m² | - |
| 1777950015 | 17.22° C | 37% | 1005.4 hPa | 0 mm | - | 0 W/m² | - |
| 1777949415 | 17.78° C | 36% | 1005 hPa | 0 mm | - | 0 W/m² | - |
| 1777948817 | 18.33° C | 35% | 1004.7 hPa | 0 mm | - | 0 W/m² | - |
| 1777948217 | 18.89° C | 35% | 1004.1 hPa | 0 mm | - | 0 W/m² | - |
| 1777947617 | 18.89° C | 34% | 1003.7 hPa | 0 mm | - | 0 W/m² | - |
| 1777947017 | 19.44° C | 34% | 1003.5 hPa | 0 mm | - | 0 W/m² | - |
| 1777946417 | 19.44° C | 33% | 1002.9 hPa | 0 mm | - | 0 W/m² | - |
| 1777945817 | 20° C | 32% | 1002.8 hPa | 0 mm | - | 0 W/m² | - |
| 1777945215 | 20° C | 33% | 1002.5 hPa | 0 mm | - | 0 W/m² | - |
| 1777944617 | 20.56° C | 32% | 1002.2 hPa | 0 mm | - | 0 W/m² | - |
| 1777944017 | 21.11° C | 32% | 1002 hPa | 0 mm | - | 6 W/m² | - |
| 1777943417 | 21.67° C | 31% | 1001.8 hPa | 0 mm | - | 18 W/m² | - |
| 1777942817 | 21.67° C | 30% | 1001.3 hPa | 0 mm | - | 36 W/m² | - |
| 1777942217 | 22.22° C | 29% | 1001.4 hPa | 0 mm | - | 40 W/m² | - |
| 1777941617 | 23.33° C | 29% | 1001.3 hPa | 0 mm | - | 64 W/m² | - |
| 1777941017 | 23.89° C | 28% | 1000.6 hPa | 0 mm | - | 108 W/m² | - |
| 1777940417 | 24.44° C | 28% | 1000.4 hPa | 0 mm | - | 96 W/m² | - |
| 1777939817 | 24.44° C | 30% | 1000.4 hPa | 0 mm | - | 122 W/m² | - |
| 1777939217 | 25° C | 30% | 1000.4 hPa | 0 mm | - | 149 W/m² | - |
| 1777938617 | 25° C | 31% | 1000.5 hPa | 0 mm | - | 127 W/m² | - |
| 1777938017 | 25.56° C | 31% | 1000.3 hPa | 0 mm | - | 147 W/m² | - |
| 1777937417 | 26.11° C | 30% | 1000.3 hPa | 0 mm | - | 121 W/m² | - |
| 1777936817 | 27.22° C | 28% | 1000.4 hPa | 0 mm | - | 158 W/m² | - |
* Rain latest hour (hover to see other rain measurements)
** Current wind speed in m/s (hover to see current wind gust speed)